Weather History for EIDW - September, 2014

Change the Weather History Date:

Tuesday, September 2, 2014

  Actual Average Record
Temperature  
Mean Temperature 54 °F -  
Max Temperature 62 °F 62 °F 71 °F (1996)
Min Temperature 47 °F 49 °F 42 °F (2010)
Degree Days  
Heating Degree Days 10    
Growing Degree Days 4 (Base 50)    
Moisture  
Dew Point 50 °F    
Average Humidity 79    
Maximum Humidity 100    
Minimum Humidity 51    
Precipitation  
Precipitation 0.00 in 0.09 in - ()
Sea Level Pressure  
Sea Level Pressure 30.24 in    
Wind  
Wind Speed 4 mph ()    
Max Wind Speed 10 mph    
Max Gust Speed -    
Visibility 9.7 miles    
Events      
Averages and records for this station are not official NWS values.
T = Trace of Precipitation, MM = Missing Value Source: Averaged Metar Reports

Daily Weather History Graph

Daily Weather History Graph

Search for Another Location

Airport or City:

Trip Planner

Search our weather history database for the weather conditions in past years. The results will help you decide how hot, cold, wet, or windy it might be!

Date:

Astronomy

Sep. 02, 2014 Rise Set
Actual Time 6:35 AM IST 8:12 PM IST
Civil Twilight 5:59 AM IST 8:49 PM IST
Nautical Twilight 5:14 AM IST 9:34 PM IST
Astronomical Twilight 4:23 AM IST 10:24 PM IST
Moon 3:07 PM IST (9/2) 11:52 PM IST (9/2)
Length of Visible Light 14h 49m
Length of Day
13h 36m
Waxing Crescent, 50% of the Moon is Illuminated
Sep 2
Waxing Crescent
Sep 2
First Quarter
Sep 9
Full
Sep 16
Last Quarter
Sep 24
New

Hourly Weather History & Observations

Time (IST) Temp. Dew Point Humidity Pressure Visibility Wind Dir Wind Speed Gust Speed Precip Events Conditions
12:00 AM 55 °F 51 °F 81% 30.25 in 22 mi WNW 4.5 mph - -   Mostly Cloudy
12:30 AM 55.4 °F 50.0 °F 82% 30.24 in 6.2 mi WNW 3.5 mph - N/A   Mostly Cloudy
1:00 AM 56 °F 50 °F 74% 30.26 in 22 mi Calm Calm - -   Mostly Cloudy
1:00 AM 55.4 °F 50.0 °F 82% 30.24 in 6.2 mi North 1.2 mph - N/A   Mostly Cloudy
1:30 AM 55.4 °F 50.0 °F 82% 30.24 in 6.2 mi Calm Calm - N/A   Mostly Cloudy
2:00 AM 55 °F 51 °F 81% 30.26 in 22 mi WNW 6.7 mph - -   Mostly Cloudy
2:00 AM 55.4 °F 50.0 °F 82% 30.24 in 6.2 mi WNW 4.6 mph - N/A   Mostly Cloudy
2:30 AM 55.4 °F 50.0 °F 82% 30.24 in 6.2 mi Variable 2.3 mph - N/A   Mostly Cloudy
3:00 AM 55 °F 51 °F 81% 30.25 in 22 mi NNE 2.2 mph - -   Mostly Cloudy
3:00 AM 55.4 °F 50.0 °F 82% 30.24 in 6.2 mi Variable 2.3 mph - N/A   Mostly Cloudy
3:30 AM 55.4 °F 51.8 °F 88% 30.24 in 6.2 mi Calm Calm - N/A   Mostly Cloudy
4:00 AM 55 °F 51 °F 80% 30.25 in 22 mi Calm Calm - -   Overcast
4:00 AM 55.4 °F 50.0 °F 82% 30.24 in 6.2 mi Calm Calm - N/A   Overcast
4:30 AM 55.4 °F 51.8 °F 88% 30.24 in 6.2 mi Calm Calm - N/A   Overcast
5:00 AM 56 °F 49 °F 71% 30.25 in 22 mi NW 2.2 mph - -   Overcast
5:00 AM 57.2 °F 50.0 °F 77% 30.24 in 6.2 mi Variable 1.2 mph - N/A   Overcast
5:30 AM 55.4 °F 50.0 °F 82% 30.24 in 6.2 mi Calm Calm - N/A   Overcast
6:00 AM 54 °F 51 °F 86% 30.25 in 22 mi Calm Calm - -   Mostly Cloudy
6:00 AM 55.4 °F 51.8 °F 88% 30.24 in 6.2 mi Calm Calm - N/A   Mostly Cloudy
6:30 AM 55.4 °F 51.8 °F 88% 30.24 in 6.2 mi Calm Calm - N/A   Mostly Cloudy
7:00 AM 55 °F 51 °F 81% 30.25 in 19 mi NW 4.5 mph - -   Mostly Cloudy
7:00 AM 55.4 °F 51.8 °F 88% 30.24 in 6.2 mi WNW 4.6 mph - N/A   Mostly Cloudy
7:30 AM 55.4 °F 51.8 °F 88% 30.24 in 6.2 mi WNW 3.5 mph - N/A   Mostly Cloudy
8:00 AM 56 °F 52 °F 83% 30.26 in 19 mi WNW 2.2 mph - -   Mostly Cloudy
8:00 AM 55.4 °F 51.8 °F 88% 30.24 in 6.2 mi Variable 2.3 mph - N/A   Mostly Cloudy
8:30 AM 57.2 °F 51.8 °F 82% 30.24 in 6.2 mi Variable 2.3 mph - N/A   Mostly Cloudy
9:00 AM 57 °F 52 °F 79% 30.26 in 19 mi North 4.5 mph - -   Mostly Cloudy
9:00 AM 57.2 °F 51.8 °F 82% 30.24 in 6.2 mi Variable 3.5 mph - N/A   Mostly Cloudy
9:30 AM 57.2 °F 51.8 °F 82% 30.24 in 6.2 mi Variable 2.3 mph - N/A   Mostly Cloudy
10:00 AM 59 °F 53 °F 74% 30.26 in 19 mi ESE 4.5 mph - -   Mostly Cloudy
10:00 AM 59.0 °F 51.8 °F 77% 30.24 in 6.2 mi ESE 3.5 mph - N/A   Mostly Cloudy
10:30 AM 60.8 °F 50.0 °F 68% 30.24 in 6.2 mi SE 4.6 mph - N/A   Mostly Cloudy
11:00 AM 60 °F 47 °F 53% 30.26 in 19 mi ESE 2.2 mph - -   Mostly Cloudy
11:00 AM 60.8 °F 48.2 °F 63% 30.24 in 6.2 mi ESE 4.6 mph - N/A   Mostly Cloudy
11:30 AM 60.8 °F 46.4 °F 59% 30.24 in 6.2 mi ESE 5.8 mph - N/A   Mostly Cloudy
12:00 PM 60 °F 48 °F 56% 30.27 in 19 mi ESE 6.7 mph - -   Mostly Cloudy
12:00 PM 60.8 °F 48.2 °F 63% 30.24 in 6.2 mi ESE 5.8 mph - N/A   Mostly Cloudy
12:30 PM 60.8 °F 48.2 °F 63% 30.24 in 6.2 mi SE 6.9 mph - N/A   Mostly Cloudy
1:00 PM 60 °F 49 °F 59% 30.26 in 19 mi ESE 4.5 mph - -   Mostly Cloudy
1:00 PM 60.8 °F 50.0 °F 68% 30.24 in 6.2 mi ESE 4.6 mph - N/A   Mostly Cloudy
1:30 PM 60.8 °F 48.2 °F 63% 30.24 in 6.2 mi ESE 4.6 mph - N/A   Mostly Cloudy
2:00 PM 61 °F 53 °F 66% 30.25 in 19 mi ESE 6.7 mph - -   Mostly Cloudy
2:00 PM 60.8 °F 50.0 °F 68% 30.24 in 6.2 mi ESE 6.9 mph - N/A   Mostly Cloudy
2:30 PM 62.6 °F 48.2 °F 59% 30.24 in 6.2 mi ESE 6.9 mph - N/A   Mostly Cloudy
3:00 PM 62 °F 49 °F 51% 30.25 in 19 mi SE 8.9 mph - -   Mostly Cloudy
3:00 PM 60.8 °F 50.0 °F 68% 30.24 in 6.2 mi SE 9.2 mph - N/A   Mostly Cloudy
3:30 PM 62.6 °F 48.2 °F 59% 30.24 in 6.2 mi ESE 9.2 mph - N/A   Mostly Cloudy
4:00 PM 60 °F 50 °F 61% 30.24 in 19 mi East 8.9 mph - -   Mostly Cloudy
4:00 PM 60.8 °F 51.8 °F 72% 30.21 in 6.2 mi East 9.2 mph - N/A   Mostly Cloudy
4:30 PM 60.8 °F 51.8 °F 72% 30.21 in 6.2 mi East 10.4 mph - N/A   Mostly Cloudy
5:00 PM 59 °F 51 °F 66% 30.23 in 19 mi East 8.9 mph - -   Mostly Cloudy
5:00 PM 59.0 °F 51.8 °F 77% 30.21 in 6.2 mi East 9.2 mph - N/A   Mostly Cloudy
5:30 PM 59.0 °F 51.8 °F 77% 30.21 in 6.2 mi East 8.1 mph - N/A   Mostly Cloudy
6:00 PM 59 °F 52 °F 71% 30.22 in 19 mi ESE 8.9 mph - -   Mostly Cloudy
6:00 PM 59.0 °F 51.8 °F 77% 30.21 in 6.2 mi ESE 9.2 mph - N/A   Mostly Cloudy
6:30 PM 59.0 °F 51.8 °F 77% 30.21 in 6.2 mi ESE 6.9 mph - N/A   Mostly Cloudy
7:00 PM 57 °F 53 °F 80% 30.22 in 19 mi East 8.9 mph - -   Partly Cloudy
7:00 PM 57.2 °F 51.8 °F 82% 30.21 in 6.2 mi East 8.1 mph - N/A   Scattered Clouds
7:30 PM 55.4 °F 51.8 °F 88% 30.21 in 6.2 mi East 8.1 mph - N/A   Scattered Clouds
8:00 PM 54 °F 53 °F 93% 30.22 in 19 mi East 6.7 mph - -   Scattered Clouds
8:00 PM 55.4 °F 53.6 °F 94% 30.21 in 6.2 mi East 6.9 mph - N/A   Partly Cloudy
8:30 PM 51.8 °F 50.0 °F 94% 30.21 in 6.2 mi East 5.8 mph - N/A   Partly Cloudy
9:00 PM 51 °F 50 °F 95% 30.24 in 19 mi ESE 6.7 mph - -   Scattered Clouds
9:00 PM 51.8 °F 50.0 °F 94% 30.21 in 6.2 mi East 5.8 mph - N/A   Partly Cloudy
9:30 PM 51.8 °F 51.8 °F 100% 30.21 in 6.2 mi ESE 4.6 mph - N/A   Partly Cloudy
10:00 PM 49 °F 48 °F 97% 30.24 in 19 mi ESE 4.5 mph - -   Scattered Clouds
10:00 PM 50.0 °F 48.2 °F 94% 30.21 in 6.2 mi ESE 4.6 mph - N/A   Partly Cloudy
10:30 PM 50.0 °F 48.2 °F 94% 30.21 in 6.2 mi SE 4.6 mph - N/A   Partly Cloudy
11:00 PM 47 °F 47 °F 98% 30.24 in 19 mi ESE 4.5 mph - -   Clear
11:00 PM 48.2 °F 46.4 °F 93% 30.21 in - ESE 4.6 mph - N/A   Clear
11:30 PM 48.2 °F 48.2 °F 100% 30.21 in - ESE 3.5 mph - N/A   Clear